LILIUM-1

Satellite information

Favourite Embed

Satellite Type and Status

PAYLOADIN ORBIT

Key statistics

Satellite LILIUM-1 at a glance.

Uptime

586

Days in orbit

Revolutions

≈ 15.4

Per day

Orbit

SSO

Sun Synchronous Orbit

Inclination

97.4

Latest

Satellite identification and parameters

Extended collection of information and parameters for LILIUM-1.

Object identification

Identified? True

Debris? False

Object name: LILIUM-1

International designator: 2023-185F

Object number (NORAD): 58467

Object ID (CCSDS): 58467

Country: TAIWAN (TWN)

Current information (Y/N): Y

RCS size: MEDIUM

Orbital parameters

Period: 93.674 minutes

Inclination: 97.3758 deg

SMA: 6832.412 km

Apoapsis: 459.757 km

Periapsis: 448.797 km

RAAN: 259.2829 deg

Eccentricy: 0.0008021

Argument of periapsis: 4.0917 deg

Mean anomaly: 356.0392 deg

Mean motion: 15.37239997 rev/day

Mean motion (dot): 0.00016785 rev/day2

B* drag term: 0.00046152 1/REarth

Two-line elements (TLE)

Creation date: July 9, 2025, 2:22 a.m.

Reference frame: TEME

Reference center: EARTH

Epoch: July 8, 2025, 9:39 p.m. UTC

TLE line 0: 0 LILIUM-1

TLE line 1: 1 58467U 23185F 25189.90272007 .00016785 00000-0 46152-3 0 9999

TLE line 2: 2 58467 97.3758 259.2829 0008021 4.0917 356.0392 15.37239997 89156

Live tracking on map

Real-time ground track for satellite LILIUM-1.

In-orbit conjunctions

There are no conjunctions computed for LILIUM-1, at the moment. Check back to stay up to date, as we update our databases every day.

Go to all conjunctions

Associated space launch

Note: Name of payload is provisional. First launch of an ultimately 5 reconnaissance satellites for the South Korean Defense Acquisition Program Administration (DAPA), with 1 satellite featuring an electro-optical infrared (EO/IR) telescope. The other 4 synthetic aperture radar (SAR) satellites are to be launched at a later date. They will be launched to low Earth orbit between 600 and 700 km by 2025, enabling South Korea’s military to observe the nuclear-armed neighbor’s key military facilities every two hours with 30-50 centimeters resolution imagery, according to a 2019 report produced by the Korea Institute of S&T Evaluation and Planning. The project is lead by the Korean Agency for Defense Development (ADD) and Korea Aerospace Research Institute (KARI), with input from Korea Aerospace Industries (KAI), Hanwha Systems and Thales Alenia Space. ESA's EIRSAT-1 is also onboard as a rideshare passenger. This 2U cubesat carries three experiments, including a novel gamma ray detector to study some of the most luminous explosions in the universe.

LILIUM-1 was lifted into orbit during the mission ‘Falcon 9 Block 5 | 425 Project Flight 1 & rideshare’, on board a Falcon 9 space rocket.

The launch took place on Dec. 1, 2023, 6:19 p.m. from Space Launch Complex 4E.

For more information about the launch, click the button.

Launch to space Falcon 9 Block 5 | 425 Project Flight 1 & rideshare
Falcon 9 Block 5 | 425 Project Flight 1 & rideshare

Agency: N/A

Status: Launch Successful

Launch date: Dec. 1, 2023, 6:19 p.m. UTC

Rocket: Falcon 9

Launch pad: Space Launch Complex 4E

Location: Vandenberg SFB, CA, USA

...

Latest news about this satellite

News about space launch
Launch Roundup: Soyuz resupplies the ISS; SpaceX launches more Starlink satellites

This week, SpaceX continued its incredible launch cadence with two more launches of Falcon 9, a Soyuz 2.1a resupplied the International Space Station (ISS), and three missions launched consecutively out of China.


Newsletter sign-up

Weekly statistics, charts and insights to help you stay on top of the space industry.